White Plains, CT

1:18 PM EDT on July 22, 2017 (GMT -0400)
Westchester County

Weather History for KHPN - June, 2013

Change the Weather History Date:

Saturday, June 8, 2013

  Actual Average Record
Temperature  
Mean Temperature 65 °F -  
Max Temperature 75 °F 71 °F 93 °F (2011)
Min Temperature 55 °F 54 °F 33 °F (1998)
Growing Degree Days 15 (Base 50)    
Moisture  
Dew Point 57 °F    
Average Humidity 81    
Maximum Humidity 94    
Minimum Humidity 60    
Precipitation  
Precipitation 0.56 in - - ()
Sea Level Pressure  
Sea Level Pressure 29.78 in    
Wind  
Wind Speed 11 mph (NW)    
Max Wind Speed 21 mph    
Max Gust Speed 25 mph    
Visibility 8 miles    
Events Rain    
Averages and records for this station are not official NWS values.
T = Trace of Precipitation, MM = Missing Value Source: NWS Daily Summary

Daily Weather History Graph

Daily Weather History Graph

Search for Another Location

Airport or City:

Trip Planner

Search our weather history database for the weather conditions in past years. The results will help you decide how hot, cold, wet, or windy it might be!

Date:

Astronomy

Jun. 08, 2013 Rise Set
Actual Time 5:22 AM EDT 8:25 PM EDT
Civil Twilight 4:49 AM EDT 8:59 PM EDT
Nautical Twilight 4:06 AM EDT 9:41 PM EDT
Astronomical Twilight 3:16 AM EDT 10:31 PM EDT
Moon 5:28 AM EDT (6/8) 8:25 PM EDT (6/8)
Length of Visible Light 16h 10m
Length of Day
15h 03m
New Moon, 0% of the Moon is Illuminated
Jun 8
New Moon
Jun 16
First Quarter
Jun 23
Full
Jun 30
Last Quarter
Jul 8
New

Hourly Weather History & Observations

Time (EDT) Temp. Dew Point Humidity Pressure Visibility Wind Dir Wind Speed Gust Speed Precip Events Conditions
12:03 AM 57.2 °F 55.4 °F 94% 29.65 in 4.0 mi NNE 6.9 mph - 0.01 in Rain Rain
12:10 AM 57.2 °F 55.4 °F 94% 29.65 in 1.5 mi NNE 11.5 mph 17.3 mph 0.01 in Rain Rain
12:56 AM 57.0 °F 55.0 °F 93% 29.62 in 1.5 mi NNE 10.4 mph - 0.04 in Rain Rain
1:56 AM 57.0 °F 54.0 °F 89% 29.60 in 2.0 mi NNE 12.7 mph 18.4 mph 0.08 in Rain Rain
2:56 AM 55.9 °F 54.0 °F 93% 29.59 in 2.0 mi North 12.7 mph - 0.37 in Rain Rain
3:03 AM 55.4 °F 53.6 °F 94% 29.59 in 3.0 mi North 13.8 mph - 0.03 in Rain Rain
3:34 AM 55.4 °F 53.6 °F 94% 29.59 in 4.0 mi NNW 15.0 mph - 0.07 in Rain Rain
3:56 AM 55.9 °F 53.1 °F 90% 29.60 in 10.0 mi North 16.1 mph 25.3 mph 0.07 in Rain Rain
4:03 AM 55.4 °F 53.6 °F 94% 29.59 in 10.0 mi North 17.3 mph - 0.00 in Rain Rain
4:40 AM 55.4 °F 53.6 °F 94% 29.62 in 10.0 mi NNW 20.7 mph 25.3 mph 0.00 in Rain Rain
4:47 AM 55.4 °F 51.8 °F 88% 29.61 in 10.0 mi NNW 19.6 mph - 0.00 in Rain Rain
4:56 AM 55.9 °F 52.0 °F 87% 29.62 in 10.0 mi NNW 17.3 mph - 0.00 in Rain Rain
5:21 AM 55.4 °F 53.6 °F 94% 29.65 in 10.0 mi NW 13.8 mph - 0.00 in   Mostly Cloudy
5:56 AM 55.9 °F 53.1 °F 90% 29.69 in 10.0 mi NW 17.3 mph 21.9 mph 0.00 in   Mostly Cloudy
6:56 AM 57.9 °F 53.1 °F 84% 29.74 in 10.0 mi NW 15.0 mph - N/A   Scattered Clouds
7:56 AM 60.1 °F 55.0 °F 83% 29.78 in 10.0 mi NW 13.8 mph 21.9 mph N/A   Mostly Cloudy
8:56 AM 62.1 °F 55.9 °F 80% 29.82 in 10.0 mi WNW 8.1 mph - N/A   Mostly Cloudy
9:56 AM 64.0 °F 57.0 °F 78% 29.84 in 10.0 mi West 6.9 mph - N/A   Mostly Cloudy
10:56 AM 68.0 °F 60.1 °F 76% 29.87 in 10.0 mi WNW 10.4 mph - N/A   Mostly Cloudy
11:56 AM 71.1 °F 60.1 °F 68% 29.88 in 10.0 mi NW 8.1 mph - N/A   Mostly Cloudy
12:56 PM 73.9 °F 61.0 °F 64% 29.88 in 10.0 mi NW 8.1 mph - N/A   Mostly Cloudy
1:56 PM 75.0 °F 60.1 °F 60% 29.88 in 10.0 mi WNW 10.4 mph - N/A   Mostly Cloudy
2:56 PM 75.0 °F 60.1 °F 60% 29.90 in 10.0 mi WSW 5.8 mph - N/A   Mostly Cloudy
3:56 PM 73.9 °F 60.1 °F 62% 29.89 in 10.0 mi WNW 5.8 mph - N/A   Mostly Cloudy
4:56 PM 73.9 °F 61.0 °F 64% 29.92 in 10.0 mi WSW 5.8 mph - N/A   Mostly Cloudy
5:56 PM 73.9 °F 60.1 °F 62% 29.94 in 10.0 mi WNW 9.2 mph - N/A   Mostly Cloudy
6:56 PM 73.0 °F 60.1 °F 64% 29.96 in 10.0 mi NW 5.8 mph - N/A   Partly Cloudy
7:56 PM 70.0 °F 59.0 °F 68% 29.98 in 10.0 mi NW 6.9 mph - N/A   Partly Cloudy
8:56 PM 66.0 °F 59.0 °F 78% 29.99 in 10.0 mi Calm Calm - N/A   Clear
9:56 PM 64.0 °F 59.0 °F 84% 30.01 in 10.0 mi Calm Calm - N/A   Clear
10:56 PM 63.0 °F 57.9 °F 84% 30.04 in 10.0 mi Calm Calm - N/A   Clear
11:56 PM 63.0 °F 59.0 °F 87% 30.04 in 10.0 mi Calm Calm - N/A   Mostly Cloudy